{"data":{"norad_id":64453,"intl_designator":"2025-130R","name":"STARLINK-34221","alt_names":[],"object_type":"PAYLOAD","status":"ACTIVE","operator":null,"country":"US","launch_date":"2025-06-18","launch_site_code":"AFETR","launch_vehicle":null,"mission":null,"orbit_class":"UNKNOWN","rcs_meters":null,"size_class":null,"mass_kg":null,"dimensions":null,"purposes":["comms"],"wikipedia_slug":null,"has_3d_model":false,"image_url":null,"decayed_at":null,"tle_current":{"epoch":"2026-05-25T02:38:37.430016Z","epoch_age_seconds":61676,"freshness":"FRESH","line1":"1 64453U 25130R   26145.11015544  .00026081  00000+0  78034-3 0  9993","line2":"2 64453  53.1601  92.8469 0000975  99.9913 260.1200 15.34400877 52411","mean_motion":15.34400877,"eccentricity":9.75e-5,"inclination_deg":53.1601,"raan_deg":92.8469,"arg_perigee_deg":99.9913,"mean_anomaly_deg":260.12,"bstar":0.00078034,"rev_number":5241,"period_min":93.847704441843,"perigee_km":462.03365191025,"apogee_km":463.3676152488,"semimajor_km":6840.8376335795,"source":"CELESTRAK","updated_at":"2026-05-25T13:38:20.451214Z"}}}